15min,AgWx,evansfrm,411,10APR2018:00:00:00,38.0,12.95,37.9,37.8,39.2,40.1,37.8,66,70,63,0.541,28.7,29.2,28.3,2.499,1.2,45,36,3.3,-0.00016,-0.00021,51.1,49.1,32,0,0,41.1,20.06,0.00,0.00
15min,AgWx,evansfrm,411,10APR2018:00:15:00,37.3,12.95,35.9,36.8,36.0,37.7,34.5,78,81,71,0.555,29.7,30.8,29.0,3.617,2.6,153,47,3.8,-0.00009,-0.00011,50.9,49.1,32,0,0,38.6,20.06,0.00,0.00
15min,AgWx,evansfrm,411,10APR2018:00:30:00,36.7,12.94,36.7,37.0,36.7,37.6,35.3,73,77,71,0.540,29.0,29.6,28.2,2.85,3.6,95,34,5.2,-0.00004,-0.00003,50.8,49.1,32,0,0,39.2,20.06,0.00,0.00
15min,AgWx,evansfrm,411,10APR2018:00:45:00,36.4,12.94,37.0,37.1,37.6,38.4,36.8,71,74,67,0.543,29.0,29.7,28.3,0,1.8,10,18,3.6,-0.00012,-0.00014,50.5,49.1,32,0,0,39.4,20.06,0.00,0.00
15min,AgWx,evansfrm,411,10APR2018:01:00:00,35.9,12.93,33.8,33.7,35.4,37.0,33.7,79,82,72,0.538,29.7,30.4,28.8,1.885,1.6,164,53,4.4,-0.00014,-0.00018,50.2,48.7,32,0,0,37.5,20.06,0.00,0.00
15min,AgWx,evansfrm,411,10APR2018:01:15:00,35.1,12.93,33.1,33.6,33.5,34.3,33.2,83,85,81,0.541,29.0,29.7,28.3,0,1.2,133,4.6,2.7,-0.00016,-0.00022,49.9,48.7,32,0,0,37.1,20.06,0.00,0.00
15min,AgWx,evansfrm,411,10APR2018:01:30:00,34.4,12.92,34.9,35.8,34.1,35.8,33.5,82,84,78,0.556,29.1,29.7,28.5,1.14,0.6,167,5.2,2.9,-0.00021,-0.00030,49.7,48.4,32,0,0,36.8,20.06,0.00,0.00
15min,AgWx,evansfrm,411,10APR2018:01:45:00,34.0,12.92,34.9,34.9,35.7,36.3,34.9,77,78,75,0.523,29.1,29.7,28.2,2.543,1.0,113,41,3.0,-0.00018,-0.00025,49.6,48.6,32,0,0,37.6,20.06,0.00,0.00
15min,AgWx,evansfrm,411,10APR2018:02:00:00,33.7,12.92,33.4,33.2,34.7,35.5,33.1,78,81,76,0.517,28.4,29.2,27.6,1.359,0.7,75,11,2.5,-0.00019,-0.00027,49.4,48.4,32,0,0,37.6,20.06,0.00,0.00
15min,AgWx,evansfrm,411,10APR2018:02:15:00,33.4,12.9,34.9,35.0,34.6,36.2,33.1,76,81,72,0.530,27.9,29.0,27.0,3.288,3.1,91,12,5.5,-0.00007,-0.00007,49.1,48.2,32,0,0,38.0,20.06,0.00,0.00
15min,AgWx,evansfrm,411,10APR2018:02:30:00,33.4,12.91,35.8,35.7,35.7,36.1,35.0,75,77,73,0.519,28.4,29.0,28.0,1.666,2.4,43,17,5.7,-0.00009,-0.00011,49.0,48.2,32,0,0,38.0,20.06,0.00,0.00
15min,AgWx,evansfrm,411,10APR2018:02:45:00,33.3,12.9,34.6,34.6,35.7,36.1,34.6,74,77,73,0.521,28.3,28.5,28.0,1.469,0.5,280,56,2.7,-0.00021,-0.00032,48.8,48.2,32,0,0,37.8,20.06,0.00,0.00
15min,AgWx,evansfrm,411,10APR2018:03:00:00,32.9,12.89,31.9,31.8,33.6,35.6,31.8,80,85,75,0.516,28.1,28.7,27.4,3.683,1.3,140,22,3.7,-0.00016,-0.00021,48.6,48.4,32,0,0,36.2,20.06,0.00,0.00
15min,AgWx,evansfrm,411,10APR2018:03:15:00,32.5,12.89,32.6,32.8,33.3,34.4,31.8,80,85,78,0.518,28.0,28.7,27.1,3.047,3.0,129,11,4.2,-0.00008,-0.00009,48.4,48.2,32,0,0,36.3,20.06,0.00,0.00
15min,AgWx,evansfrm,411,10APR2018:03:30:00,32.1,12.89,33.0,33.5,32.9,33.5,32.4,83,84,82,0.530,28.3,29.0,27.9,1.644,1.8,170,20,3.3,-0.00013,-0.00017,48.1,48.2,32,0,0,35.4,20.06,0.00,0.00
15min,AgWx,evansfrm,411,10APR2018:03:45:00,31.8,12.88,33.6,33.9,33.5,34.0,33.0,81,83,78,0.516,28.3,29.0,27.7,3.113,1.5,123,32,3.5,-0.00015,-0.00019,48.0,47.8,32,0,0,35.4,20.06,0.00,0.00
15min,AgWx,evansfrm,411,10APR2018:04:00:00,31.9,12.88,35.7,35.9,34.7,35.9,33.9,76,79,73,0.519,28.0,28.3,27.5,4.647,3.7,62,8.9,5.3,-0.00005,-0.00004,47.8,47.8,32,0,0,36.8,20.06,0.00,0.00
15min,AgWx,evansfrm,411,10APR2018:04:15:00,32.2,12.88,34.1,34.2,34.9,36.2,34.1,75,78,71,0.523,27.9,28.2,27.6,0.833,3.0,54,50,5.5,-0.00007,-0.00007,47.7,47.7,32,0,0,37.3,20.06,0.00,0.00
15min,AgWx,evansfrm,411,10APR2018:04:30:00,31.9,12.88,32.6,32.7,33.7,34.4,32.7,80,85,78,0.531,28.2,28.7,27.8,0.373,0.7,226,20,2.6,-0.00019,-0.00027,47.5,47.7,32,0,0,35.6,20.06,0.00,0.00
15min,AgWx,evansfrm,411,10APR2018:04:45:00,31.5,12.87,31.1,31.2,31.9,32.7,31.2,85,86,84,0.501,27.9,28.6,27.1,0,1.8,152,26,3.2,-0.00014,-0.00017,47.2,47.5,32,0,0,34.3,20.06,0.00,0.00
15min,AgWx,evansfrm,411,10APR2018:05:00:00,31.1,12.87,32.5,32.6,32.7,34.1,31.3,82,86,77,0.501,27.6,28.1,26.9,3.069,2.6,139,9.5,4.3,-0.00010,-0.00011,47.2,47.5,32,0,0,35.3,20.06,0.00,0.00
15min,AgWx,evansfrm,411,10APR2018:05:15:00,30.9,12.86,32.0,32.5,32.5,34.1,31.4,80,83,76,0.506,27.1,27.9,26.1,0,1.5,100,14,3.1,-0.00014,-0.00018,46.9,47.3,32,0,0,36.3,20.06,0.00,0.00
15min,AgWx,evansfrm,411,10APR2018:05:30:00,30.6,12.85,31.9,32.3,32.3,32.9,31.4,80,83,77,0.507,26.8,27.6,26.0,0.088,0.5,146,22,2.6,-0.00020,-0.00029,46.8,47.3,32,0,0,35.1,20.06,0.00,0.00
15min,AgWx,evansfrm,411,10APR2018:05:45:00,30.5,12.86,33.0,33.1,32.7,34.1,31.9,80,82,77,0.501,27.3,28.6,26.4,1.315,1.0,56,58,3.3,-0.00017,-0.00023,46.6,47.3,32,0,0,35.1,20.06,0.00,0.00
15min,AgWx,evansfrm,411,10APR2018:06:00:00,30.4,12.85,32.9,32.8,33.8,35.0,32.8,77,79,73,0.496,27.2,27.5,26.5,0,0.6,22,48,1.5,-0.00019,-0.00028,46.4,47.3,32,2,0,36.4,20.06,0.00,0.00
15min,AgWx,evansfrm,411,10APR2018:06:15:00,30.3,12.81,32.3,32.7,32.7,33.3,32.1,79,81,78,0.498,27.1,27.7,26.3,2.455,0.4,146,3.2,3.2,-0.00023,-0.00024,46.3,47.1,32,13,0,35.9,20.06,0.00,0.00
15min,AgWx,evansfrm,411,10APR2018:06:30:00,30.4,12.88,32.8,33.2,32.6,33.3,31.9,82,84,80,0.530,27.7,28.8,26.9,0.088,1.3,73,22,2.9,-0.00015,-0.00013,46.0,46.9,32,33,0,37.4,20.06,0.00,0.00
15min,AgWx,evansfrm,411,10APR2018:06:45:00,30.7,12.9,32.7,32.9,32.7,33.4,31.9,84,86,81,0.542,28.3,29.0,27.7,2.718,0.4,168,31,2.7,-0.00002,-0.00002,45.9,46.8,32,58,0,39.5,20.06,0.00,0.00
15min,AgWx,evansfrm,411,10APR2018:07:00:00,31.8,12.9,35.4,35.6,34.5,35.6,32.9,85,87,82,0.574,30.5,31.3,29.1,2.74,3.0,165,13,3.9,0.00018,0.00024,45.9,46.8,32,104,0,42.3,20.06,0.00,0.00
15min,AgWx,evansfrm,411,10APR2018:07:15:00,33.2,12.97,36.5,36.7,36.1,36.7,35.5,81,82,79,0.591,30.7,31.3,30.2,0.066,1.5,168,13,3.1,0.00031,0.00037,45.8,46.9,32,103,0,44.5,20.06,0.00,0.00
15min,AgWx,evansfrm,411,10APR2018:07:30:00,35.2,13.15,38.9,37.5,37.2,37.6,36.6,78,82,75,0.601,30.8,31.7,29.9,0.066,1.7,273,38,3.7,0.00053,0.00062,45.6,46.6,31,173,0,47.8,20.05,0.00,0.00
15min,AgWx,evansfrm,411,10APR2018:07:45:00,38.1,13.47,39.3,39.9,38.6,40.0,37.4,75,79,72,0.604,31.3,32.3,30.4,2.981,1.1,32,36,3.2,0.00080,0.00089,45.4,46.4,31,243,0,53.3,20.05,0.00,0.00
15min,AgWx,evansfrm,411,10APR2018:08:00:00,41.0,13.64,40.4,39.9,39.9,40.7,39.5,73,75,71,0.626,32.0,33.2,31.1,1.688,2.7,6.6,38,4.4,0.00099,0.00115,45.4,46.2,32,262,0,54.4,20.05,0.00,0.00
15min,AgWx,evansfrm,411,10APR2018:08:15:00,43.3,14.12,42.0,42.4,40.8,42.4,39.8,70,75,66,0.612,31.9,32.8,30.9,1.447,2.3,5.0,26,4.4,0.00131,0.00149,45.3,46.0,31,345,0,56.3,20.05,0.00,0.00
15min,AgWx,evansfrm,411,10APR2018:08:30:00,47.9,14.2,45.5,44.6,43.2,44.7,42.1,65,68,61,0.618,32.1,34.0,30.6,0.745,1.0,325,62,3.2,0.00180,0.00198,45.3,46.0,31,438,0,69.1,20.05,0.00,0.00
15min,AgWx,evansfrm,411,10APR2018:08:45:00,51.2,14.44,46.2,45.8,45.0,45.8,44.5,59,64,55,0.575,31.6,33.8,30.1,0,0.8,225,21,2.5,0.00191,0.00209,45.2,46.2,31,441,0,72.3,20.05,0.00,0.00
15min,AgWx,evansfrm,411,10APR2018:09:00:00,53.7,14.57,48.6,46.7,46.0,46.8,45.3,58,63,54,0.635,32.1,33.8,30.6,3.266,1.5,300,41,4.7,0.00204,0.00227,45.3,46.0,31,445,0,71.0,20.05,0.00,0.00
15min,AgWx,evansfrm,411,10APR2018:09:15:00,54.2,14.56,47.1,46.9,46.6,47.3,46.1,57,61,55,0.609,32.1,34.1,31.1,3.486,3.4,328,28,5.6,0.00182,0.00215,45.4,46.0,32,357,0,64.0,20.05,0.00,0.00
15min,AgWx,evansfrm,411,10APR2018:09:30:00,54.7,14.56,48.5,47.6,47.5,48.2,46.7,57,61,54,0.664,33.0,35.0,31.5,2.083,2.9,4.2,38,5.4,0.00212,0.00246,45.4,45.7,31,425,0,65.5,20.05,0.00,0.00
15min,AgWx,evansfrm,411,10APR2018:09:45:00,56.1,14.54,49.6,49.3,48.1,49.3,47.5,57,61,53,0.678,33.7,35.4,32.4,2.455,2.6,338,27,5.6,0.00249,0.00283,45.7,45.7,31,504,0,69.0,20.05,0.00,0.00
15min,AgWx,evansfrm,411,10APR2018:10:00:00,58.1,14.5,50.6,49.7,50.1,50.8,49.2,52,56,48,0.609,33.1,34.8,31.3,3.091,2.9,349,35,6.3,0.00295,0.00337,45.9,45.9,31,577,0,73.3,20.05,0.00,0.00
15min,AgWx,evansfrm,411,10APR2018:10:15:00,58.8,14.5,52.2,52.0,50.5,52.2,49.5,52,56,50,0.682,33.6,36.5,31.5,3.025,3.3,337,30,5.1,0.00265,0.00307,46.0,45.7,31,496,0,69.8,20.05,0.00,0.00
15min,AgWx,evansfrm,411,10APR2018:10:30:00,59.9,14.48,53.3,52.1,51.9,52.7,51.2,51,55,47,0.662,34.1,36.2,32.1,3.244,3.5,332,30,6.5,0.00299,0.00347,46.2,45.5,31,551,0,72.8,20.05,0.00,0.00
15min,AgWx,evansfrm,411,10APR2018:10:45:00,60.7,14.43,53.1,52.3,52.5,53.5,51.8,50,53,46,0.651,34.2,36.5,32.7,5.415,3.0,330,33,5.4,0.00275,0.00319,46.5,45.7,31,485,0,73.7,20.05,0.00,0.00
15min,AgWx,evansfrm,411,10APR2018:11:00:00,61.0,14.44,53.8,52.9,52.6,53.2,52.0,50,54,48,0.666,34.5,36.6,32.8,1.622,3.3,310,33,5.5,0.00264,0.00310,46.7,45.7,31,459,0,71.9,20.05,0.00,0.00
15min,AgWx,evansfrm,411,10APR2018:11:15:00,62.1,14.43,56.3,54.4,53.6,55.3,52.7,47,52,44,0.652,34.0,37.6,32.6,1.315,1.4,334,42,4.1,0.00324,0.00359,47.0,45.3,31,584,0,81.6,20.06,0.00,0.00
15min,AgWx,evansfrm,411,10APR2018:11:30:00,63.2,14.38,55.4,54.3,54.2,54.6,54.0,47,51,45,0.662,34.3,36.4,33.2,0.877,2.5,323,30,5.6,0.00265,0.00305,47.3,45.7,31,439,0,77.9,20.06,0.00,0.00
15min,AgWx,evansfrm,411,10APR2018:11:45:00,62.8,14.1,55.0,54.6,54.4,54.7,54.1,46,49,44,0.651,34.1,35.9,32.8,1.271,2.8,313,40,4.3,0.00201,0.00241,47.6,45.7,31,299,0,71.0,20.06,0.00,0.00
15min,AgWx,evansfrm,411,10APR2018:12:00:00,62.4,14.25,56.6,55.4,55.0,55.5,54.4,44,47,42,0.641,33.4,35.3,32.3,1.666,1.4,292,31,2.8,0.00197,0.00224,48.0,45.9,31,308,0,73.7,20.06,0.00,0.00
15min,AgWx,evansfrm,411,10APR2018:12:15:00,62.4,14.4,56.8,56.1,55.7,56.1,55.2,43,47,42,0.663,33.8,36.3,32.6,2.236,2.5,332,42,5.2,0.00240,0.00282,48.4,46.0,31,374,0,74.5,20.06,0.00,0.00
15min,AgWx,evansfrm,411,10APR2018:12:30:00,62.9,14.38,57.4,56.4,56.3,56.9,55.9,42,46,40,0.632,33.6,35.8,32.3,1.798,3.0,293,24,4.7,0.00258,0.00307,48.6,46.2,31,395,0,76.0,20.05,0.00,0.00
15min,AgWx,evansfrm,411,10APR2018:12:45:00,62.7,14.39,57.1,56.6,56.5,56.8,56.1,41,44,38,0.628,32.8,35.0,31.2,2.631,2.6,318,27,4.6,0.00204,0.00246,48.8,46.0,31,286,0,71.8,20.05,0.00,0.00
15min,AgWx,evansfrm,411,10APR2018:13:00:00,62.7,14.39,57.4,57.8,57.3,57.8,56.6,40,43,37,0.638,33.2,35.0,31.7,1.535,2.9,23,38,6.4,0.00228,0.00275,49.2,46.0,31,324,0,73.3,20.05,0.00,0.00
15min,AgWx,evansfrm,411,10APR2018:13:15:00,63.3,14.39,59.0,58.8,58.5,59.1,57.8,39,43,36,0.720,33.4,36.1,31.9,0.526,2.0,337,62,4.0,0.00269,0.00311,49.5,46.4,31,415,0,77.8,20.05,0.00,0.00
15min,AgWx,evansfrm,411,10APR2018:13:30:00,64.4,14.36,59.7,58.9,59.1,59.5,58.5,39,44,37,0.643,34.2,37.2,32.6,4.077,2.4,282,47,5.0,0.00294,0.00341,49.7,46.6,31,456,0,81.6,20.05,0.00,0.00
15min,AgWx,evansfrm,411,10APR2018:13:45:00,64.6,14.05,59.1,58.7,58.6,58.9,58.3,40,43,37,0.707,34.0,36.4,32.0,4.384,3.0,282,20,5.1,0.00202,0.00250,50.0,46.6,31,264,0,73.4,20.05,0.00,0.00
15min,AgWx,evansfrm,411,10APR2018:14:00:00,64.6,14.35,60.3,59.5,58.8,59.5,58.4,39,43,36,0.630,34.0,36.1,32.3,0,2.1,290,18,4.9,0.00214,0.00253,50.1,46.4,31,307,0,75.3,20.05,0.00,0.00
15min,AgWx,evansfrm,411,10APR2018:14:15:00,65.6,14.36,61.8,61.1,60.2,61.5,59.5,37,40,35,0.699,33.9,36.1,32.5,3.529,1.1,287,44,3.8,0.00291,0.00325,50.4,46.2,31,474,0,83.8,20.06,0.00,0.00
15min,AgWx,evansfrm,411,10APR2018:14:30:00,67.1,14.3,61.4,60.3,60.9,61.4,60.3,38,42,35,0.699,35.1,38.1,32.8,3.091,3.6,274,20,6.5,0.00396,0.00464,50.7,46.9,31,640,0,86.1,20.05,0.00,0.00
15min,AgWx,evansfrm,411,10APR2018:14:45:00,67.3,14.28,61.3,60.3,60.3,60.6,60.0,38,42,36,0.676,34.9,37.2,33.5,0.833,3.1,282,34,6.1,0.00251,0.00304,50.9,46.8,31,358,0,76.8,20.05,0.00,0.00
15min,AgWx,evansfrm,411,10APR2018:15:00:00,67.9,14.28,61.5,61.0,60.6,61.0,60.3,37,39,35,0.683,33.9,35.9,32.7,2.368,1.6,255,30,2.8,0.00227,0.00263,51.1,46.9,31,344,0,81.3,20.05,0.00,0.00
15min,AgWx,evansfrm,411,10APR2018:15:15:00,68.0,14.28,61.8,61.0,61.0,61.4,60.6,36,38,34,0.646,33.7,35.5,32.6,0.351,1.8,306,28,3.3,0.00212,0.00250,51.3,46.8,31,309,0,78.8,20.06,0.00,0.00
15min,AgWx,evansfrm,411,10APR2018:15:30:00,68.2,14.06,62.4,61.8,61.8,62.1,61.0,35,39,33,0.672,34.2,36.2,32.5,3.003,2.4,345,22,4.0,0.00234,0.00280,51.7,47.1,31,343,0,78.7,20.06,0.00,0.00
15min,AgWx,evansfrm,411,10APR2018:15:45:00,67.9,13.89,62.6,62.3,62.2,62.5,61.7,35,38,32,0.620,34.0,36.2,32.1,2.477,2.4,356,28,3.6,0.00176,0.00219,51.9,47.3,31,223,0,74.3,20.06,0.00,0.00
15min,AgWx,evansfrm,411,10APR2018:16:00:00,67.6,13.66,63.0,62.8,62.7,62.9,62.3,32,35,30,0.612,32.7,34.5,30.6,3.266,2.7,341,21,4.4,0.00175,0.00224,52.1,47.5,31,211,0,74.3,20.06,0.00,0.00
15min,AgWx,evansfrm,411,10APR2018:16:15:00,67.1,13.56,62.9,62.9,62.8,63.1,62.5,32,35,28,0.673,32.1,35.0,29.2,3.398,2.7,4.1,12,5.3,0.00154,0.00202,52.3,47.5,31,169,0,72.3,20.06,0.00,0.00
15min,AgWx,evansfrm,411,10APR2018:16:30:00,66.7,13.64,62.8,63.2,62.9,63.2,62.6,32,35,30,0.615,32.3,34.6,30.9,3.179,3.4,25,27,5.5,0.00181,0.00240,52.4,47.5,31,215,0,72.6,20.06,0.00,0.00
15min,AgWx,evansfrm,411,10APR2018:16:45:00,66.2,13.48,62.2,62.2,62.6,63.2,62.2,33,36,31,0.649,33.2,35.0,31.3,3.508,3.9,13,15,6.4,0.00162,0.00224,52.6,47.5,31,169,0,71.2,20.06,0.00,0.00
15min,AgWx,evansfrm,411,10APR2018:17:00:00,65.6,13.3,61.7,61.7,62.1,62.3,61.7,34,35,32,0.648,33.2,34.3,32.3,3.771,3.1,360,16,5.0,0.00129,0.00178,52.7,48.2,31,126,0,69.4,20.06,0.00,0.00
15min,AgWx,evansfrm,411,10APR2018:17:15:00,64.8,13.24,61.2,61.4,61.5,61.8,61.1,35,37,31,0.601,33.5,35.4,30.7,3.179,3.7,5.0,14,6.6,0.00120,0.00175,52.8,47.8,31,87,0,67.2,20.06,0.00,0.00
15min,AgWx,evansfrm,411,10APR2018:17:30:00,63.9,13.16,61.0,61.1,61.1,61.4,60.8,32,35,30,0.568,31.2,33.1,30.0,5.327,3.7,16,23,6.8,0.00103,0.00158,52.9,48.2,31,56,0,65.5,20.06,0.00,0.00
15min,AgWx,evansfrm,411,10APR2018:17:45:00,63.1,13.14,60.5,60.6,60.9,61.3,60.6,34,36,30,0.639,32.1,33.5,29.7,4.954,3.3,35,23,6.4,0.00098,0.00147,52.9,48.4,31,68,0,65.3,20.06,0.00,0.00
15min,AgWx,evansfrm,411,10APR2018:18:00:00,62.3,13.11,59.7,59.9,60.1,60.6,59.7,37,40,35,0.665,34.0,35.4,32.7,3.091,4.5,14,18,9.7,0.00101,0.00161,53.1,48.0,31,59,0,63.8,20.06,0.00,0.00
15min,AgWx,evansfrm,411,10APR2018:18:15:00,61.4,13.09,58.8,59.0,59.5,60.0,58.9,38,40,36,0.664,34.1,35.1,32.8,2.565,2.3,15,28,4.3,0.00058,0.00090,53.0,48.4,31,38,0,62.8,20.06,0.00,0.00
15min,AgWx,evansfrm,411,10APR2018:18:30:00,60.2,13.06,57.4,57.8,58.3,59.2,57.7,42,44,38,0.685,35.1,36.4,33.5,0.153,1.5,308,14,3.4,0.00031,0.00051,53.1,48.2,31,27,0,60.9,20.06,0.00,0.00
15min,AgWx,evansfrm,411,10APR2018:18:45:00,58.9,13.05,55.1,55.4,56.5,57.8,55.2,47,51,42,0.714,36.2,38.5,34.7,3.464,2.5,83,20,4.5,0.00034,0.00061,53.1,48.2,31,13,0,59.5,20.06,0.00,0.00
15min,AgWx,evansfrm,411,10APR2018:19:00:00,57.5,13.03,53.4,53.8,54.2,55.4,53.4,53,56,48,0.741,37.4,38.6,36.0,1.754,2.2,91,8.7,3.8,0.00029,0.00050,53.0,48.4,31,4,0,57.6,20.06,0.00,0.00
15min,AgWx,evansfrm,411,10APR2018:19:15:00,56.2,13.02,53.0,53.5,53.7,54.3,53.1,53,57,49,0.706,37.1,38.4,35.4,1.096,0.9,71,22,2.8,0.00007,0.00012,52.9,48.6,31,1,0,56.5,20.06,0.00,0.00
15min,AgWx,evansfrm,411,10APR2018:19:30:00,55.1,13.01,52.7,52.9,53.5,54.0,52.9,53,56,51,0.737,37.0,38.3,35.7,0,0.3,8.4,7.3,1.1,-0.00000,0.00000,52.8,48.6,31,0,0,56.3,20.06,0.00,0.00
15min,AgWx,evansfrm,411,10APR2018:19:45:00,54.1,13,52.0,52.2,52.7,53.4,51.8,55,58,52,0.751,36.8,37.9,36.1,1.381,1.6,78,6.6,4.1,0.00013,0.00021,52.8,48.7,31,0,0,55.8,20.06,0.00,0.00
15min,AgWx,evansfrm,411,10APR2018:20:00:00,53.3,13,51.9,52.0,51.3,52.1,50.2,61,66,56,0.793,38.2,39.4,36.9,5.217,2.6,183,30,5.9,0.00017,0.00025,52.6,48.6,31,0,0,54.6,20.06,0.00,0.00
15min,AgWx,evansfrm,411,10APR2018:20:15:00,52.8,13,51.1,51.6,51.4,52.0,50.9,63,65,58,0.760,39.1,40.1,37.1,3.31,3.5,144,42,5.3,0.00021,0.00029,52.5,48.7,31,0,0,54.5,20.06,0.00,0.00
15min,AgWx,evansfrm,411,10APR2018:20:30:00,52.5,12.98,51.6,51.6,52.0,52.4,51.6,59,64,56,0.824,38.2,39.9,36.8,1.732,2.8,168,20,4.7,0.00019,0.00028,52.3,48.7,31,0,0,55.4,20.06,0.00,0.00
15min,AgWx,evansfrm,411,10APR2018:20:45:00,52.4,12.99,51.9,52.2,52.0,52.4,51.6,62,64,60,0.839,39.4,40.3,38.8,2.105,3.1,191,63,6.4,0.00019,0.00028,52.3,48.7,31,0,0,55.4,20.06,0.00,0.00
15min,AgWx,evansfrm,411,10APR2018:21:00:00,52.4,12.98,54.1,54.6,52.8,54.7,52.1,60,63,51,0.777,39.2,40.3,36.6,4.516,4.8,84,71,7.1,0.00029,0.00039,52.2,48.7,31,0,0,55.7,20.06,0.00,0.00
15min,AgWx,evansfrm,411,10APR2018:21:15:00,52.9,12.97,55.1,55.2,54.6,55.5,53.5,52,58,48,0.733,37.5,39.4,36.2,6.182,7.7,108,15,10.9,0.00047,0.00059,52.0,48.7,31,0,0,57.1,20.06,0.00,0.00
15min,AgWx,evansfrm,411,10APR2018:21:30:00,53.4,12.97,54.8,54.7,55.1,56.2,54.4,50,54,44,0.754,37.0,38.3,34.3,2.959,4.0,11,43,8.0,0.00034,0.00047,51.9,48.7,31,0,0,58.0,20.06,0.00,0.00
15min,AgWx,evansfrm,411,10APR2018:21:45:00,53.9,12.97,56.4,56.3,56.7,57.7,54.7,44,52,41,0.749,35.1,37.4,33.8,2.105,2.7,59,58,6.4,0.00029,0.00043,51.9,48.9,31,0,0,59.1,20.06,0.00,0.00
15min,AgWx,evansfrm,411,10APR2018:22:00:00,54.1,12.89,57.8,57.5,56.5,57.9,55.5,45,51,38,0.637,35.1,38.2,32.2,1.447,3.2,127,61,9.5,0.00033,0.00048,51.7,48.9,31,0,0,59.3,20.06,0.00,0.00
15min,AgWx,evansfrm,411,10APR2018:22:15:00,54.4,12.95,54.7,54.7,55.8,58.0,54.4,48,55,39,0.763,36.4,38.6,32.8,6.182,4.6,181,24,8.2,0.00039,0.00053,51.7,48.4,31,0,0,58.7,20.06,0.00,0.00
15min,AgWx,evansfrm,411,10APR2018:22:30:00,54.4,12.95,54.6,54.8,54.7,55.3,53.9,50,55,47,0.729,36.6,38.3,35.2,5.612,4.2,141,27,7.7,0.00034,0.00048,51.6,48.7,31,0,0,57.4,20.06,0.00,0.00
15min,AgWx,evansfrm,411,10APR2018:22:45:00,54.3,12.94,54.0,54.0,54.7,55.5,53.9,49,52,44,0.729,35.7,37.0,34.0,1.622,4.7,227,19,8.5,0.00039,0.00053,51.5,48.7,31,0,0,57.3,20.06,0.00,0.00
15min,AgWx,evansfrm,411,10APR2018:23:00:00,54.0,12.94,53.3,53.4,53.4,54.1,52.9,54,57,52,0.742,37.2,38.2,36.4,1.14,2.0,319,67,4.6,0.00017,0.00026,51.4,48.7,31,0,0,56.4,20.06,0.00,0.00
15min,AgWx,evansfrm,411,10APR2018:23:15:00,53.8,12.94,53.9,53.9,53.9,54.4,53.5,51,53,48,0.703,36.2,37.1,35.2,3.836,6.2,190,23,9.0,0.00042,0.00055,51.4,48.7,31,0,0,56.4,20.06,0.00,0.00
15min,AgWx,evansfrm,411,10APR2018:23:30:00,53.7,12.93,54.9,54.9,54.8,56.4,53.9,46,50,39,0.698,34.5,36.0,31.2,5.261,3.5,135,89,10.1,0.00033,0.00046,51.3,48.7,31,0,0,57.3,20.06,0.00,0.00
15min,AgWx,evansfrm,411,10APR2018:23:45:00,53.8,12.93,54.2,54.3,54.9,56.1,53.8,46,51,39,0.703,34.5,36.1,31.1,12.98,5.4,30,87,13.0,0.00044,0.00059,51.1,48.9,31,0,0,57.4,20.06,0.00,0.00
15min,AgWx,drainfrm,410,10APR2018:00:00:00,39.0,12.75,39.2,41.0,39.5,41.0,38.5,79,85,69,0.605,33.4,34.5,31.7,1.271,2.2,128,13,3.5,-0.00012,-0.00015,48.9,46.6,61,0,100,39.9,18.21,0.00,0.00
15min,AgWx,drainfrm,410,10APR2018:00:15:00,38.6,12.75,39.3,40.1,41.3,42.3,40.1,70,88,62,0.740,32.3,36.8,29.8,2.718,2.1,164,35,3.0,-0.00011,-0.00013,48.7,46.8,61,0,100,40.7,18.21,0.00,0.00
15min,AgWx,drainfrm,410,10APR2018:00:30:00,38.2,12.75,39.0,39.8,39.8,40.1,39.7,84,88,82,0.710,35.5,36.9,34.9,1.535,2.5,214,8.2,3.6,-0.00012,-0.00015,48.7,46.6,61,0,100,40.1,18.21,0.00,0.00
15min,AgWx,drainfrm,410,10APR2018:00:45:00,37.9,12.74,38.1,38.8,39.4,39.8,38.8,84,87,79,0.700,34.9,35.8,33.5,1.929,2.0,228,7.5,2.6,-0.00014,-0.00018,48.6,46.6,61,0,100,39.3,18.21,0.00,0.00
15min,AgWx,drainfrm,410,10APR2018:01:00:00,37.4,12.74,37.1,38.0,38.5,38.8,38.0,89,92,87,0.714,35.5,36.1,35.0,0,1.7,151,46,3.4,-0.00017,-0.00022,48.4,46.8,61,0,100,38.6,18.21,0.00,0.00
15min,AgWx,drainfrm,410,10APR2018:01:15:00,37.0,12.73,37.0,37.7,38.4,39.3,37.6,88,94,82,0.723,35.3,36.9,33.8,1.951,1.3,105,46,5.7,-0.00019,-0.00026,48.2,46.6,61,0,100,38.7,18.21,0.00,0.00
15min,AgWx,drainfrm,410,10APR2018:01:30:00,36.6,12.73,35.7,36.3,36.7,37.7,36.2,98,100,94,0.703,36.1,36.6,35.5,3.31,2.9,54,10,4.1,-0.00015,-0.00019,48.1,46.6,61,0,100,37.8,18.21,0.00,0.00
15min,AgWx,drainfrm,410,10APR2018:01:45:00,36.2,12.73,35.1,36.0,36.3,36.8,35.8,97,99,95,0.692,35.6,36.3,34.8,1.578,2.1,7.4,31,3.5,-0.00017,-0.00021,48.0,46.4,61,0,100,37.3,18.21,0.00,0.00
15min,AgWx,drainfrm,410,10APR2018:02:00:00,35.5,12.72,35.2,35.8,35.4,36.0,35.2,98,100,96,0.697,35.0,35.7,34.4,1.491,0.7,306,43,3.0,-0.00021,-0.00030,47.9,46.6,61,0,100,36.6,18.21,0.00,0.00
15min,AgWx,drainfrm,410,10APR2018:02:15:00,35.1,12.72,35.2,36.4,36.3,36.8,35.7,94,98,91,0.689,34.7,35.3,34.2,0.877,1.8,329,29,2.7,-0.00016,-0.00022,47.7,46.6,61,0,100,37.3,18.21,0.00,0.00
15min,AgWx,drainfrm,410,10APR2018:02:30:00,34.8,12.71,35.4,36.1,36.3,36.8,35.8,96,98,93,0.675,35.2,35.6,34.4,4.012,1.9,140,26,4.0,-0.00017,-0.00022,47.7,46.6,61,0,100,36.9,18.21,0.00,0.00
15min,AgWx,drainfrm,410,10APR2018:02:45:00,34.7,12.71,38.1,38.8,37.6,38.8,36.1,83,94,77,0.620,32.8,34.5,31.8,3.179,3.4,113,14,6.1,-0.00008,-0.00009,47.5,46.2,61,0,100,38.3,18.21,0.00,0.00
15min,AgWx,drainfrm,410,10APR2018:03:00:00,34.6,12.71,36.2,37.0,37.8,38.9,37.0,83,87,78,0.643,33.1,33.5,32.5,0,1.1,327,63,3.4,-0.00018,-0.00025,47.3,46.4,61,0,100,38.0,18.21,0.00,0.00
15min,AgWx,drainfrm,410,10APR2018:03:15:00,34.3,12.7,36.3,37.2,37.5,37.9,37.0,85,88,83,0.656,33.4,33.8,33.1,1.71,0.9,326,8.4,1.7,-0.00020,-0.00028,47.3,46.4,61,0,100,37.8,18.21,0.00,0.00
15min,AgWx,drainfrm,410,10APR2018:03:30:00,34.0,12.71,34.4,35.3,35.6,37.0,34.3,91,96,88,0.632,33.3,34.1,32.5,4.253,3.1,305,6.5,4.3,-0.00012,-0.00014,47.2,46.4,61,0,100,37.9,18.21,0.00,0.00
15min,AgWx,drainfrm,410,10APR2018:03:45:00,33.7,12.7,33.7,34.5,34.6,35.8,33.7,91,94,88,0.607,32.3,33.0,31.7,3.486,4.1,273,9.1,5.6,-0.00009,-0.00011,47.0,46.4,61,0,100,37.0,18.21,0.00,0.00
15min,AgWx,drainfrm,410,10APR2018:04:00:00,33.3,12.7,33.7,34.5,35.1,35.8,34.5,95,100,89,0.672,33.7,35.2,31.7,2.039,1.7,353,57,3.4,-0.00017,-0.00022,46.9,46.4,61,0,100,36.2,18.21,0.00,0.00
15min,AgWx,drainfrm,410,10APR2018:04:15:00,33.1,12.69,33.3,34.0,34.1,34.5,33.8,100,100,100,0.659,34.1,34.4,33.8,0.351,2.2,66,7.1,3.6,-0.00016,-0.00021,46.8,46.4,61,0,100,35.4,18.21,0.00,0.00
15min,AgWx,drainfrm,410,10APR2018:04:30:00,32.8,12.69,32.9,33.6,33.7,34.0,33.4,100,100,100,0.649,33.6,33.9,33.3,3.135,2.7,33,15,4.2,-0.00015,-0.00019,46.6,46.4,61,0,100,35.1,18.21,0.00,0.00
15min,AgWx,drainfrm,410,10APR2018:04:45:00,32.5,12.69,32.8,33.1,32.8,33.7,32.2,100,100,100,0.637,32.8,33.7,32.1,2.477,2.6,26,30,3.9,-0.00015,-0.00019,46.5,46.0,61,0,100,34.4,18.21,0.00,0.00
15min,AgWx,drainfrm,410,10APR2018:05:00:00,32.1,12.69,32.6,33.5,33.1,33.5,32.4,100,100,100,0.646,33.0,33.5,32.4,2.521,1.9,2.8,26,2.9,-0.00017,-0.00022,46.4,46.0,61,0,100,34.5,18.21,0.00,0.00
15min,AgWx,drainfrm,410,10APR2018:05:15:00,31.9,12.68,32.4,33.2,33.5,33.8,33.1,100,100,100,0.640,33.4,33.7,33.0,1.71,2.4,13,11,3.3,-0.00015,-0.00020,46.3,46.0,61,0,100,35.0,18.21,0.00,0.00
15min,AgWx,drainfrm,410,10APR2018:05:30:00,31.6,12.68,31.2,32.0,32.4,33.2,32.0,100,100,100,0.609,32.4,33.2,31.9,1.732,1.6,346,6.7,2.1,-0.00017,-0.00023,46.3,46.0,61,0,100,34.3,18.21,0.00,0.00
15min,AgWx,drainfrm,410,10APR2018:05:45:00,31.3,12.68,31.7,32.4,32.2,32.4,32.0,100,100,100,0.620,32.2,32.4,31.9,1.271,1.6,17,49,2.6,-0.00017,-0.00022,46.1,45.9,61,0,100,33.9,18.21,0.00,0.00
15min,AgWx,drainfrm,410,10APR2018:06:00:00,31.2,12.67,32.2,32.7,32.5,32.9,32.1,100,100,100,0.627,32.4,32.9,32.1,2.455,1.9,260,44,3.2,-0.00016,-0.00021,46.1,46.0,61,3,100,33.8,18.21,0.00,0.00
15min,AgWx,drainfrm,410,10APR2018:06:15:00,31.1,12.66,32.0,32.7,32.6,32.9,32.4,100,100,100,0.626,32.6,32.8,32.3,1.732,1.0,336,50,2.3,-0.00026,-0.00028,45.9,46.0,61,14,100,34.5,18.21,0.00,0.00
15min,AgWx,drainfrm,410,10APR2018:06:30:00,31.3,12.69,32.6,33.1,33.0,33.2,32.7,100,100,100,0.637,33.0,33.2,32.7,0.723,1.6,26,45,3.1,-0.00022,-0.00023,45.9,46.0,61,41,100,36.0,18.21,0.00,0.00
15min,AgWx,drainfrm,410,10APR2018:06:45:00,32.4,12.73,33.8,33.9,33.4,33.9,33.0,100,100,100,0.656,33.3,33.8,32.9,0,1.5,37,10,3.5,-0.00003,-0.00003,45.6,45.9,61,88,100,37.5,18.21,0.00,0.00
15min,AgWx,drainfrm,410,10APR2018:07:00:00,34.8,12.76,35.4,35.9,35.0,36.1,33.9,100,100,100,0.711,35.0,36.0,33.8,0.592,0.7,43,12,2.0,0.00012,0.00013,45.6,45.9,61,117,100,40.3,18.20,0.00,0.00
15min,AgWx,drainfrm,410,10APR2018:07:15:00,37.0,12.79,35.8,35.6,35.7,35.8,35.6,100,100,100,0.704,35.6,35.7,35.5,2.083,0.3,1.5,5.4,2.1,0.00028,0.00030,45.5,45.7,61,108,100,42.6,18.20,0.00,0.00
15min,AgWx,drainfrm,410,10APR2018:07:30:00,39.0,12.9,36.6,36.8,36.1,36.8,35.4,100,100,100,0.736,36.1,36.7,35.4,1.754,1.9,319,40,3.5,0.00042,0.00045,45.4,45.7,61,155,100,43.8,18.20,0.00,0.00
15min,AgWx,drainfrm,410,10APR2018:07:45:00,41.7,13.13,38.1,38.4,37.6,38.5,36.4,98,100,95,0.786,37.2,38.5,35.7,2.828,2.9,279,17,4.5,0.00064,0.00068,45.3,45.7,61,218,100,46.8,18.20,0.00,0.00